GFSCGP_925_temp_324.txt.gz
Temp
26 26 24 25 25 27 29 30 29 31 31 30 30 29 28 27 27 26 27 29 29 29 29 29 28 28 28 28 28 27 27 27 27 27 26 27 27 27 28 27 28 28 27 27
26 26 26 30 30 29 29 28 28 28 29 30 27 27 26 26 27 25 26 27 27 27 29 29 28 27 26 27 28 27 27 27 27 27 26 27 27 27 27 28 27 26 26 26
26 28 29 29 29 28 28 28 28 29 28 27 25 27 25 27 26 26 27 27 26 26 28 29 28 26 26 27 27 27 27 27 27 27 27 27 26 25 26 25 25 25 26 25
26 29 29 27 28 29 25 29 30 29 27 27 25 26 25 24 25 25 27 27 27 25 25 27 28 27 27 27 28 28 28 27 27 27 27 26 26 24 23 25 24 25 25 25
30 30 28 28 28 26 27 30 29 30 27 25 26 24 25 23 24 25 26 26 25 24 25 26 28 28 27 27 27 28 28 27 27 26 26 26 25 25 24 24 24 24 24 24
27 31 31 32 32 29 30 29 27 26 24 25 26 26 25 23 25 26 25 24 24 24 25 26 29 28 27 27 27 27 27 26 26 26 26 25 25 24 23 23 22 22 21 21
29 30 32 32 28 28 27 25 25 27 25 25 24 25 26 24 25 25 23 22 22 21 22 25 29 27 27 26 27 26 25 25 25 26 25 25 24 23 22 21 22 21 20 19
29 29 31 30 31 31 28 26 26 28 27 26 25 25 26 25 24 25 23 23 23 22 22 23 27 28 28 26 25 25 23 23 24 25 24 23 21 21 21 21 19 19 18 17
27 29 31 30 27 29 28 27 28 29 27 24 23 25 24 23 23 24 23 22 22 22 22 21 21 21 22 26 26 24 22 22 21 21 19 19 19 19 20 19 18 17 17 17
29 30 30 32 31 30 30 31 30 26 29 30 26 27 25 22 23 23 22 22 22 21 21 20 19 18 17 18 19 19 19 20 19 19 19 18 18 19 19 17 17 17 17 17
28 28 31 32 30 31 29 27 28 26 24 26 27 27 27 24 23 22 21 21 21 20 19 20 18 17 17 17 17 17 17 17 17 18 18 17 17 17 17 16 16 16 16 16
31 25 28 31 31 32 30 30 26 25 27 24 24 25 22 23 23 21 20 19 19 19 19 19 18 17 17 17 17 17 17 17 17 17 16 16 15 15 15 15 15 15 15 15
31 26 25 26 27 29 31 30 27 24 22 25 24 25 24 23 22 20 19 18 18 18 18 18 18 17 17 17 17 17 17 17 17 16 16 15 15 14 15 14 14 14 14 15
26 24 25 24 26 27 29 29 30 27 25 25 25 24 23 23 20 19 18 18 18 18 18 18 17 17 17 17 17 17 17 17 16 16 15 16 15 15 15 14 14 14 14 15
26 28 29 28 27 29 29 29 28 28 27 28 28 25 23 23 20 19 18 19 20 19 18 18 18 18 17 17 17 17 17 17 17 17 16 16 15 15 15 14 14 14 15 15
25 27 28 28 28 29 29 28 28 29 29 29 24 23 20 20 19 19 20 20 20 19 19 19 18 18 18 18 18 18 17 17 17 17 16 16 16 15 15 15 15 16 16 16
26 25 24 25 27 27 26 28 28 27 26 26 23 22 21 21 21 20 20 20 20 20 19 19 19 19 19 18 18 18 18 18 17 17 17 17 16 16 16 16 16 16 16 16
27 23 21 23 25 26 26 27 28 25 24 22 21 22 21 20 20 19 19 20 20 20 20 19 19 19 19 19 18 18 18 18 18 17 17 17 17 16 16 16 17 17 17 17
24 22 24 24 23 25 27 28 28 27 24 23 21 20 19 19 19 20 18 19 20 21 20 20 20 20 20 19 19 19 18 18 18 18 17 17 17 17 17 17 17 17 17 17
23 22 23 22 25 25 24 26 26 25 22 22 21 21 20 19 19 18 19 20 19 20 20 20 21 21 20 20 19 19 18 18 18 18 18 18 18 18 18 17 18 18 17 18
23 22 24 22 24 24 25 24 26 25 23 23 21 20 20 18 18 20 18 18 20 21 21 21 21 21 21 20 20 19 19 19 19 19 19 19 19 18 18 18 18 18 18 18
23 23 21 20 22 24 24 26 26 23 22 21 20 20 20 19 20 20 19 18 18 19 19 21 20 20 21 21 20 20 20 20 20 20 19 19 19 19 19 18 18 19 18 18
24 23 22 21 20 20 22 23 22 21 22 21 19 20 21 21 20 19 18 18 19 19 19 20 19 20 20 21 21 20 20 20 20 20 19 19 19 19 19 19 19 18 18 18
24 23 22 21 22 21 21 22 21 22 21 22 20 22 22 21 19 19 18 18 19 19 19 19 19 19 20 20 21 21 21 20 20 20 19 19 19 19 19 19 19 19 18 18
22 22 20 20 20 21 22 21 20 21 21 23 24 23 22 21 20 20 18 17 18 20 19 20 19 19 20 21 21 21 21 20 20 20 20 19 19 19 19 19 19 19 19 19
20 21 20 20 20 19 19 20 20 19 21 21 23 23 23 21 20 20 19 19 19 19 20 19 20 21 21 21 21 21 21 20 20 20 19 19 19 19 19 19 20 20 20 21

GFSCGP_925_temp_327.txt.gz
Temp
26 25 25 27 27 28 27 26 28 29 30 29 26 28 27 26 28 27 27 27 28 27 28 27 27 27 26 26 26 26 26 26 25 26 26 25 25 26 26 27 27 25 24 25
25 25 26 28 28 27 27 26 27 29 28 28 26 27 26 26 28 28 28 26 27 27 27 27 27 26 25 26 26 27 27 27 26 26 27 27 27 26 26 27 26 27 26 25
27 27 28 29 29 28 27 27 27 29 28 27 27 27 25 27 26 27 27 27 25 26 26 27 26 25 25 25 26 27 27 27 27 27 26 26 26 25 24 25 26 27 27 25
26 29 28 29 29 26 26 28 29 29 27 26 25 26 26 25 25 26 26 25 25 24 24 24 26 25 25 25 26 27 27 27 27 26 26 26 26 25 26 26 25 25 25 25
28 26 27 27 28 27 27 27 28 29 27 25 25 24 24 24 25 24 25 25 24 24 25 25 25 26 26 25 25 26 27 26 27 27 26 26 26 26 26 25 23 23 25 24
27 29 28 28 30 29 30 29 26 24 24 24 25 25 26 24 24 24 23 24 24 24 25 25 26 27 26 25 25 24 26 26 26 26 26 26 26 25 24 23 21 21 21 21
28 28 30 31 29 28 27 25 25 25 24 24 23 24 26 25 24 25 23 23 23 24 24 24 23 24 24 25 24 25 25 25 25 26 26 25 25 25 24 21 21 20 19 18
28 28 30 29 29 27 25 24 24 27 24 26 24 23 26 23 23 23 23 23 24 23 26 22 23 23 25 24 25 24 24 25 24 23 23 23 21 20 20 19 19 19 18 17
26 28 30 29 27 29 26 25 27 27 23 24 23 24 24 23 22 22 23 22 21 21 20 20 19 18 19 24 23 23 23 22 21 21 21 20 21 19 19 19 18 17 17 17
28 29 29 30 30 29 29 29 27 23 28 28 24 24 24 22 22 22 22 22 21 21 20 19 18 18 18 19 21 23 22 19 18 18 18 19 18 17 17 17 17 16 17 16
26 27 30 30 29 30 28 27 25 23 22 25 24 25 24 23 23 21 23 22 21 20 19 19 18 17 17 17 17 18 17 18 17 16 18 17 17 16 16 16 16 16 16 16
29 24 28 31 30 29 29 29 24 23 26 22 22 24 22 21 22 22 22 21 20 19 19 18 17 17 17 17 17 17 17 17 17 16 16 15 15 15 15 15 15 15 16 15
29 24 24 26 26 28 29 29 26 21 20 23 24 24 22 20 21 22 20 20 19 19 18 18 17 17 17 17 17 17 17 16 16 16 16 15 15 14 14 14 14 15 15 15
24 21 24 24 26 26 29 28 28 25 22 24 23 25 21 20 20 20 19 19 19 19 18 18 17 17 17 17 17 17 17 16 16 16 15 15 15 15 15 14 14 14 14 14
25 26 25 25 25 26 28 28 28 27 25 25 26 24 25 21 20 19 19 19 19 19 18 18 18 17 17 17 17 17 17 16 16 16 16 16 16 15 15 14 14 14 14 15
23 26 27 28 27 26 27 27 27 27 27 25 25 24 20 20 19 19 18 19 19 19 19 18 18 17 17 17 17 17 17 17 17 17 16 16 16 15 15 14 14 15 15 15
25 22 22 24 25 25 26 27 28 27 25 24 23 23 19 19 20 19 19 19 19 19 19 18 18 18 18 17 17 17 17 17 17 17 16 16 16 15 15 15 15 15 16 16
22 21 19 22 24 25 25 25 26 24 23 21 20 20 20 20 19 19 19 19 19 19 18 17 18 18 18 18 18 18 17 17 17 16 16 16 16 15 15 15 16 16 16 16
21 20 21 23 21 23 28 27 27 26 24 23 21 20 20 19 20 20 19 19 19 19 18 18 19 19 18 18 18 18 17 17 17 17 17 16 16 16 16 16 16 16 16 16
20 19 23 19 24 24 24 26 26 24 23 22 20 20 20 20 20 20 18 19 19 20 19 19 19 19 19 18 18 18 17 17 17 17 17 17 17 17 17 17 17 17 17 17
21 20 23 20 21 22 23 25 25 25 23 22 20 18 18 17 17 18 17 18 19 19 19 20 19 19 19 19 19 18 17 17 18 18 18 18 18 18 18 18 17 17 17 18
23 22 20 18 22 23 24 24 26 21 19 20 20 19 19 19 18 18 18 17 18 18 19 19 19 19 19 19 19 18 18 19 18 19 18 18 18 18 18 18 18 18 17 18
23 22 21 20 20 20 20 23 21 20 20 20 19 20 21 19 19 19 17 17 17 18 18 19 20 19 19 20 20 19 19 19 19 19 19 19 18 18 18 18 18 18 18 18
23 20 20 21 22 21 21 20 21 20 20 20 19 21 20 19 19 18 17 17 17 18 17 18 18 19 18 19 20 20 20 20 20 19 19 19 19 19 18 18 18 18 18 18
21 22 19 19 20 20 21 21 19 19 20 20 20 20 19 19 19 18 17 17 17 18 18 19 19 19 19 19 20 20 20 20 19 19 19 19 19 19 19 18 18 18 19 18
19 20 21 21 20 19 19 20 19 19 21 20 21 20 20 20 19 18 17 17 18 18 19 18 18 19 19 20 20 20 20 20 20 19 19 19 19 19 19 18 19 19 19 19

GFSCGP_925_temp_333.txt.gz
Temp
29 32 30 29 30 30 29 28 30 31 32 31 32 32 33 30 30 31 30 30 30 30 30 29 28 27 26 25 24 24 24 23 23 22 23 23 24 23 23 25 26 25 25 25
31 31 30 30 30 30 30 30 31 31 31 30 31 31 32 31 30 31 31 31 30 31 31 30 28 27 26 26 25 24 26 25 24 22 23 23 24 24 24 25 26 26 25 25
30 31 29 30 30 31 30 31 30 30 31 30 29 31 31 30 30 30 31 31 31 31 31 30 29 28 27 26 25 25 25 26 25 24 23 23 24 24 24 25 25 25 25 25
30 30 30 30 30 30 31 30 30 30 31 31 29 31 31 30 29 29 29 30 30 31 30 30 30 28 27 26 25 25 25 25 26 24 23 23 24 25 25 24 23 23 23 22
30 30 30 30 31 30 30 30 30 30 30 29 30 30 33 28 31 30 29 30 30 31 31 31 30 28 27 26 25 24 24 24 24 23 24 23 23 24 22 24 22 22 22 22
29 29 30 31 31 30 30 30 29 29 28 29 28 29 34 33 30 30 29 29 29 29 29 29 29 26 25 25 24 24 24 23 23 23 24 22 22 22 23 21 19 19 20 20
30 30 30 30 30 30 30 29 31 31 29 31 27 28 33 31 30 28 28 28 29 28 28 28 27 26 25 24 24 23 24 22 23 24 23 22 21 20 19 19 19 18 18 18
31 33 30 30 31 31 29 30 31 30 32 33 26 31 35 29 27 26 26 27 26 26 27 27 26 25 26 24 23 24 24 23 24 22 21 20 19 18 18 17 17 18 20 19
31 31 30 30 30 31 29 29 31 31 27 30 32 31 33 29 30 27 26 26 25 25 25 25 24 23 23 24 23 23 21 22 21 20 20 18 18 20 20 18 17 17 18 18
32 31 31 31 31 29 31 31 31 30 30 30 32 30 33 34 32 28 27 27 25 23 22 22 23 22 21 21 21 21 21 20 20 20 20 19 19 21 19 19 19 17 17 18
31 32 32 30 31 32 30 31 29 30 30 31 30 32 32 31 30 28 28 27 25 23 22 21 20 19 18 18 20 19 19 18 18 18 19 20 20 20 20 20 17 16 17 17
30 31 32 32 30 29 31 31 32 31 31 29 29 30 30 29 28 26 27 26 24 23 20 19 18 18 17 17 18 18 18 18 18 18 18 17 18 18 18 18 16 16 16 15
30 31 32 32 32 30 32 30 29 29 28 30 30 31 30 29 29 29 26 25 21 20 19 18 18 18 17 17 17 18 18 18 17 17 17 17 16 17 16 16 16 16 15 15
29 30 32 32 32 31 31 30 30 30 30 31 30 31 31 32 32 31 27 25 21 20 19 19 18 18 17 16 16 16 16 16 16 16 16 15 15 15 16 15 15 15 15 15
31 31 29 30 30 29 31 31 31 29 31 29 31 31 31 32 28 27 27 24 23 22 20 19 19 18 17 17 16 16 16 16 15 15 15 14 14 15 15 14 14 15 14 13
28 30 28 30 31 29 29 30 30 30 30 29 29 29 31 27 25 25 23 23 23 23 20 19 19 18 17 17 16 16 16 15 15 15 15 14 14 14 14 14 14 14 13 13
29 29 28 29 28 28 28 30 31 31 30 31 30 32 26 27 25 23 23 23 23 23 21 20 19 18 18 17 16 16 16 16 15 15 15 15 14 14 14 14 14 14 14 14
26 26 26 29 27 27 31 29 29 29 30 30 29 29 26 24 23 23 22 22 22 21 22 21 19 18 17 17 17 16 16 16 16 16 15 14 14 14 14 14 14 14 14 14
26 27 27 28 28 28 30 29 28 28 29 29 28 28 25 23 23 24 23 22 23 23 22 21 19 19 18 18 17 17 16 17 16 16 16 16 15 15 14 14 14 14 14 14
24 24 28 24 27 27 29 28 27 27 27 27 26 27 25 24 26 27 22 22 23 22 21 21 20 19 19 18 17 17 17 17 17 17 16 15 15 15 15 15 15 15 15 16
27 26 27 28 27 28 28 27 26 26 28 27 26 25 24 24 25 22 22 23 22 22 21 20 20 20 19 17 18 18 18 18 17 16 16 15 15 15 15 15 15 15 15 16
28 27 27 24 25 26 26 26 27 26 25 25 25 25 24 24 22 22 22 22 22 22 21 20 20 20 19 18 18 18 18 18 17 16 16 16 16 16 16 16 16 17 16 16
26 27 28 26 28 25 25 26 26 24 24 25 24 25 23 23 24 23 23 21 22 21 20 20 20 20 18 18 18 18 18 17 17 17 17 17 16 16 16 17 17 16 15 17
25 23 26 24 27 26 26 25 24 24 25 25 24 24 23 23 22 21 22 21 21 21 20 20 20 20 19 18 18 19 18 17 17 17 17 17 17 16 16 16 17 17 18 18
26 23 25 24 25 26 26 25 25 25 24 23 23 23 23 22 23 20 20 21 21 21 20 19 19 20 20 18 18 18 18 17 17 18 18 18 18 17 18 17 18 18 18 18
24 26 25 25 27 25 26 27 24 23 24 24 23 23 23 22 21 20 19 20 21 21 20 19 19 20 20 19 18 18 17 17 18 19 19 19 19 19 19 18 18 18 18 18

GFSCGP_925_temp_336.txt.gz
Temp
35 36 36 35 35 35 35 33 34 36 36 34 35 36 37 37 35 36 35 34 34 34 34 33 31 31 30 29 28 27 26 25 24 25 25 26 26 27 27 26 26 25 25 25
35 35 35 35 34 34 35 35 36 36 35 35 35 35 36 37 36 36 36 35 35 35 35 34 32 31 30 30 28 27 26 25 24 25 26 27 27 28 28 27 26 25 25 25
35 34 34 34 34 34 35 34 35 35 35 35 33 36 36 36 36 36 36 36 36 36 35 35 33 32 31 30 29 27 26 26 25 26 25 25 26 26 26 26 26 26 24 24
35 34 33 34 34 34 36 34 35 35 35 36 33 35 37 36 35 34 35 35 36 36 35 35 34 33 31 31 30 28 26 26 25 25 26 26 27 28 28 28 27 23 21 22
34 34 34 34 34 34 34 34 34 35 36 35 36 36 37 36 37 36 35 35 35 36 36 35 35 33 32 31 31 28 25 25 26 25 25 26 25 27 27 25 21 20 20 21
35 35 34 36 35 34 34 34 36 35 36 36 35 35 37 37 36 36 36 35 34 35 35 35 34 34 33 30 30 29 27 25 25 25 24 25 26 26 24 23 20 21 21 20
36 36 35 34 35 35 34 36 36 35 36 36 35 35 37 37 36 34 33 33 34 34 34 34 34 33 31 28 26 26 25 23 24 24 24 23 23 23 23 20 19 20 20 19
36 35 35 35 36 35 36 36 35 33 35 36 35 35 37 37 35 33 32 32 31 31 33 33 34 32 30 27 27 26 25 23 22 23 22 22 21 20 18 19 19 19 18 17
36 36 35 35 35 35 35 35 37 36 37 35 37 37 38 37 37 35 33 32 32 31 31 31 30 29 28 26 26 26 24 22 21 21 20 19 19 19 20 20 19 18 18 18
37 35 37 36 35 35 35 35 35 36 33 33 36 35 36 36 36 36 35 34 33 30 29 29 29 27 27 26 25 25 23 22 22 19 18 19 19 19 20 20 20 18 17 17
38 37 36 35 35 36 35 35 35 36 35 34 34 35 37 36 35 35 35 34 33 30 28 28 27 25 23 22 23 24 23 23 21 19 20 21 20 20 19 19 17 16 17 17
37 37 36 37 36 35 36 36 36 36 34 36 34 34 37 36 36 35 36 32 31 29 25 24 23 23 22 19 20 21 21 20 19 19 19 18 17 17 17 18 17 16 16 17
36 36 35 36 36 35 35 36 36 36 36 33 33 34 37 36 36 36 35 31 27 24 21 22 22 23 23 19 18 19 18 19 19 19 18 18 17 17 17 17 16 16 16 16
31 36 35 35 36 36 35 35 35 35 34 34 35 35 35 35 35 34 32 32 25 24 22 23 21 20 19 17 17 17 17 18 18 18 17 17 17 17 16 15 16 15 15 15
35 34 35 35 35 35 35 35 35 34 34 33 34 34 35 35 33 31 31 29 26 22 24 24 21 20 18 17 16 16 16 16 16 16 16 16 16 15 15 15 15 15 15 16
36 33 33 33 35 35 34 34 34 34 34 34 34 34 36 33 33 32 30 28 27 24 24 23 21 20 19 19 17 16 16 16 16 16 15 15 15 15 15 15 15 15 15 16
34 33 33 32 34 34 32 34 35 34 35 34 33 34 34 33 31 30 29 28 27 27 22 21 21 19 20 19 18 18 16 16 16 16 15 16 16 16 16 16 16 16 16 15
32 31 32 32 32 30 34 34 33 33 33 34 33 33 32 30 30 29 28 27 27 27 24 22 20 21 19 19 19 20 19 18 17 17 17 16 16 17 16 16 16 17 17 17
33 32 32 31 32 34 34 34 32 32 31 33 32 31 31 31 29 31 28 27 27 27 27 24 21 22 20 19 19 18 19 18 18 17 17 17 17 16 16 16 17 17 17 17
32 31 31 32 30 30 33 32 31 31 30 31 30 30 30 30 29 28 27 27 27 27 26 25 22 21 20 20 19 19 19 19 19 18 17 16 17 17 17 17 17 17 17 18
30 30 30 31 31 31 33 31 31 28 30 30 30 29 29 29 28 26 27 27 27 26 25 24 22 22 22 20 20 19 20 20 20 19 18 18 17 17 17 17 17 17 17 19
31 30 31 31 30 29 31 30 29 30 30 30 29 29 28 28 28 26 27 26 26 26 25 24 23 22 21 20 20 19 21 20 20 19 19 18 18 18 18 17 17 17 17 18
29 31 31 31 31 29 30 30 30 30 29 29 29 29 28 27 27 27 27 26 25 25 25 23 23 21 21 20 21 21 21 20 19 19 19 18 18 18 19 18 18 18 18 19
31 30 29 30 30 31 31 31 30 30 29 29 29 28 28 27 27 26 26 25 24 25 24 23 24 23 21 21 21 21 20 19 19 19 19 19 19 19 19 19 19 20 20 20
31 29 29 29 29 30 30 30 30 29 29 28 28 28 27 27 26 26 25 24 23 24 24 24 24 24 23 21 21 22 20 20 20 20 20 20 20 19 20 19 20 20 20 21
31 29 29 29 30 29 29 29 29 28 28 29 28 28 27 26 26 26 25 23 24 25 24 23 23 23 23 22 21 21 21 20 20 21 21 22 22 21 21 21 20 20 20 19

GFSCGP_925_temp_342.txt.gz
Temp
25 30 29 34 35 37 34 34 33 35 34 34 36 38 38 31 28 28 37 36 36 36 37 36 34 34 33 31 30 29 28 28 27 26 25 26 27 27 28 29 29 27 27 27
32 30 34 34 36 38 36 35 34 37 39 36 37 33 34 34 36 36 38 37 37 37 37 37 35 34 33 31 29 28 28 27 27 26 26 27 27 28 28 29 29 28 27 27
28 32 37 39 38 38 38 37 38 38 40 38 38 29 30 30 34 40 40 38 37 38 37 36 35 34 34 32 29 28 28 27 27 26 26 27 28 29 29 29 29 28 27 27
32 34 38 39 38 39 37 39 39 39 37 32 36 28 27 28 32 39 39 39 39 36 35 32 36 35 34 33 30 28 28 27 26 27 27 27 27 28 29 29 27 26 25 26
37 37 38 38 39 39 39 40 39 39 40 39 39 36 34 33 37 39 39 39 39 39 37 35 33 35 35 34 31 28 27 27 26 26 27 28 28 28 28 27 26 25 24 25
38 39 40 40 40 40 40 39 40 40 40 36 39 38 36 37 38 38 38 38 37 37 38 38 35 36 34 33 30 30 27 27 26 26 27 27 27 28 27 26 25 24 23 23
30 35 40 40 39 39 39 40 36 37 37 36 40 40 38 38 38 38 37 37 37 36 37 38 33 34 32 34 30 26 28 27 26 26 26 26 25 25 25 24 23 22 22 21
30 35 40 40 39 38 39 39 38 36 37 38 41 38 39 40 39 39 39 39 38 37 37 37 38 33 33 31 27 28 27 26 26 26 23 22 23 20 20 20 19 20 20 19
30 33 41 41 41 40 39 38 40 38 40 39 40 40 40 40 40 39 39 39 38 37 36 35 36 35 26 29 29 26 24 24 25 24 22 21 21 21 20 19 21 21 20 19
39 38 41 40 40 41 39 40 38 39 36 36 38 38 38 38 38 38 38 38 37 37 35 35 35 34 33 32 29 27 25 24 24 22 22 20 20 21 21 21 20 22 21 18
40 39 39 41 40 40 39 39 39 40 39 37 37 39 40 38 38 38 38 38 36 36 35 34 34 33 31 30 29 27 26 25 23 22 20 20 20 21 22 20 18 19 17 18
40 39 38 39 41 42 41 39 39 37 37 38 38 38 41 39 39 39 38 36 35 35 32 31 31 30 29 27 26 25 25 25 23 22 20 19 20 22 19 19 21 20 18 18
39 38 37 38 41 42 40 39 39 39 39 37 36 37 42 41 40 39 37 36 34 31 30 29 29 28 26 24 23 22 22 23 23 21 20 20 19 20 18 18 19 20 19 18
36 37 36 36 37 39 38 39 40 39 37 37 38 38 39 39 39 38 37 35 34 31 29 28 27 26 24 21 20 19 19 20 22 21 20 20 19 19 19 18 19 19 18 17
37 35 37 37 38 38 38 38 38 38 38 37 37 37 38 38 36 36 35 34 34 33 30 29 28 26 26 23 20 18 18 18 19 20 20 19 19 18 18 18 18 18 17 17
39 36 37 36 38 38 38 38 39 39 39 38 38 38 39 37 35 34 33 34 33 33 31 28 27 26 26 23 21 18 17 17 18 18 18 18 18 18 18 17 17 17 17 17
38 37 36 34 36 36 35 37 38 39 39 38 36 36 37 34 34 33 33 33 33 32 30 28 27 27 25 24 21 19 17 16 16 16 16 17 16 16 16 16 16 16 16 16
37 36 36 34 35 32 37 40 39 38 37 37 36 36 35 34 34 34 33 32 32 32 31 30 28 26 25 23 22 20 17 17 16 16 16 16 16 16 16 16 16 16 16 17
39 37 35 34 34 35 37 38 36 35 35 36 35 34 34 33 33 32 31 31 31 31 31 30 27 26 24 24 21 20 20 18 17 17 17 16 16 16 16 16 16 17 17 17
38 37 35 34 33 32 36 38 37 36 33 34 33 33 32 32 30 31 31 32 31 31 31 30 27 25 24 23 22 21 19 19 19 18 18 17 17 17 16 17 17 18 18 18
36 35 34 34 33 35 37 36 36 32 31 33 33 32 32 31 31 31 31 31 31 30 30 29 26 25 24 22 22 21 21 21 20 19 18 17 17 17 18 18 18 18 18 19
35 35 35 35 33 33 35 36 33 32 33 33 32 32 31 31 31 31 31 31 30 30 29 28 25 24 23 22 22 22 21 20 19 19 19 18 18 18 18 18 18 18 19 19
35 36 34 34 34 35 36 34 35 34 33 33 32 32 32 31 31 31 30 30 30 29 29 28 26 24 24 22 22 21 21 20 20 19 19 19 19 19 18 18 18 18 18 19
35 36 35 34 35 35 35 35 34 34 33 33 32 32 32 31 31 30 29 29 29 28 28 27 25 24 23 21 21 21 21 21 21 20 20 19 19 19 18 18 18 19 19 19
35 35 34 33 34 34 34 34 33 32 32 32 32 32 31 31 30 30 29 28 28 27 27 24 21 24 23 22 21 21 22 21 21 21 20 20 20 20 20 20 20 20 21 21
34 34 33 32 33 32 32 32 32 32 31 31 31 31 31 31 30 30 29 28 27 26 26 25 26 24 24 22 22 22 21 21 21 21 21 21 22 21 21 21 21 21 22 21

GFSCGP_925_temp_348.txt.gz
Temp
25 28 28 28 29 30 28 29 29 31 31 32 30 29 27 27 25 27 26 26 28 27 29 31 31 31 30 30 29 28 28 28 27 27 26 26 26 26 26 26 26 26 27 26
28 29 30 31 32 29 28 28 27 31 33 31 28 28 27 28 27 27 28 26 27 27 28 30 31 30 30 30 29 28 28 28 27 27 26 26 26 26 26 26 26 26 26 26
29 32 33 32 31 31 29 28 30 33 32 31 29 27 27 28 28 28 28 28 27 26 27 27 30 29 29 28 28 28 28 28 27 27 26 26 25 25 26 26 27 27 26 26
28 31 34 35 34 31 28 32 33 33 31 28 30 27 26 26 27 28 28 29 28 26 27 26 27 29 28 28 28 29 28 28 27 26 26 25 25 25 26 26 27 26 27 26
31 32 33 33 35 34 35 36 35 34 30 30 31 29 29 26 27 28 29 29 29 28 28 27 27 29 29 28 27 28 29 28 27 26 26 26 25 26 26 26 26 26 26 25
30 33 33 34 36 35 37 34 31 28 26 26 29 29 29 28 30 31 30 30 30 30 29 28 28 28 28 28 27 27 28 27 26 26 26 25 26 25 25 25 25 23 22 23
29 31 34 36 35 34 32 29 27 28 28 27 27 29 29 30 31 31 30 31 30 29 28 29 25 25 27 28 27 27 27 25 25 25 25 25 26 25 25 26 24 22 22 22
29 31 34 36 34 35 35 30 28 31 28 30 29 30 30 31 31 32 32 30 30 28 28 26 25 25 26 26 26 27 27 24 24 25 25 25 25 25 25 26 23 23 22 23
30 31 35 36 36 35 35 32 31 30 28 29 28 32 33 32 33 32 32 30 29 28 27 26 25 25 26 25 25 25 26 24 24 24 24 24 23 24 25 24 21 22 21 21
32 30 33 36 36 36 34 33 31 26 31 32 29 31 28 31 31 30 29 28 28 27 26 25 24 23 23 23 23 24 24 22 23 23 23 22 23 23 23 24 21 20 20 21
30 29 32 33 34 33 33 32 30 27 26 28 27 28 27 29 29 29 28 26 26 25 25 24 24 25 25 25 24 24 24 23 23 23 22 21 20 22 21 21 20 20 20 20
30 27 29 32 32 33 34 34 28 27 30 26 26 28 30 30 29 27 27 26 25 25 24 23 22 23 23 22 22 22 22 21 22 21 20 20 20 19 18 17 18 19 19 20
33 27 26 28 29 30 32 32 34 26 24 28 27 28 27 27 27 27 26 25 25 24 23 22 21 21 21 21 20 21 21 21 21 20 20 20 19 18 19 18 17 17 18 19
28 26 27 26 28 29 31 31 32 29 26 27 26 30 29 27 26 26 26 26 25 24 23 22 21 20 21 21 21 22 22 20 19 19 19 20 19 18 19 17 17 17 18 18
29 29 28 28 28 31 32 32 31 31 30 30 30 27 26 26 26 26 26 25 25 24 23 22 21 20 20 19 20 20 20 20 18 18 19 19 19 18 18 17 17 18 18 17
28 30 29 32 31 32 32 31 31 31 32 32 27 28 27 26 26 27 28 26 25 24 24 23 22 20 19 19 19 19 19 19 18 17 18 19 18 18 18 19 19 17 17 17
29 27 27 28 29 30 29 31 31 30 30 30 27 27 26 27 27 25 25 25 26 25 24 23 22 21 22 21 20 20 20 18 17 17 17 18 18 18 18 17 17 18 17 18
30 27 23 26 27 28 29 30 31 31 31 28 27 27 27 26 26 25 25 25 27 27 25 23 22 22 23 22 20 20 19 18 16 17 17 17 17 18 18 17 16 16 17 17
27 25 26 27 25 27 31 32 33 32 30 29 27 27 27 25 25 27 26 27 28 27 25 25 26 24 22 22 21 20 18 17 17 16 17 16 16 16 17 17 16 16 16 16
26 24 26 24 27 27 28 31 32 30 27 29 27 27 27 26 24 22 26 28 27 26 26 26 26 23 22 21 20 19 18 17 17 17 17 17 16 16 16 16 16 16 16 17
25 25 27 25 25 26 28 32 31 29 27 27 27 26 27 25 23 24 24 26 27 27 27 26 24 23 23 21 20 19 18 18 19 18 17 17 17 16 16 16 16 16 16 16
26 26 24 24 27 29 30 31 31 26 26 27 26 26 27 25 26 24 24 25 27 26 26 25 22 22 22 21 19 19 18 20 19 18 17 17 17 17 16 16 16 17 17 17
27 26 25 25 25 25 26 29 29 25 26 28 27 28 27 26 26 26 24 24 24 25 24 24 23 22 21 21 20 19 20 20 19 18 18 18 18 17 17 17 17 17 17 17
25 24 24 25 26 27 28 28 28 28 28 28 29 29 28 28 26 25 23 22 22 23 21 23 21 20 22 21 20 20 21 20 19 18 17 18 17 17 17 17 18 18 17 17
23 25 24 22 24 24 25 27 27 27 28 28 28 28 28 27 26 25 23 21 21 22 21 21 20 20 21 22 21 21 20 20 19 19 18 18 18 17 17 18 18 18 18 18
24 24 23 22 23 22 23 26 27 27 27 27 27 27 27 26 24 24 22 21 21 21 22 20 21 21 22 21 21 21 20 20 19 18 18 18 18 18 18 18 18 18 18 18

GFSCGP_925_temp_354.txt.gz
Temp
25 25 25 26 27 29 29 29 29 28 30 29 28 27 28 26 25 25 24 24 24 25 28 29 28 27 26 26 25 25 24 24 23 23 22 22 22 23 23 24 25 25 25 25
26 26 28 28 29 29 28 28 28 28 30 29 29 27 27 26 25 25 25 24 24 24 25 26 28 28 27 27 26 25 25 24 24 23 23 22 22 23 25 25 25 25 25 26
27 29 30 30 30 29 28 28 28 30 30 29 29 27 28 27 26 26 25 26 25 24 25 24 26 27 28 26 26 25 26 26 25 24 23 22 23 22 23 24 25 25 25 25
27 29 31 31 30 29 28 28 29 30 28 28 29 27 28 27 27 27 27 26 25 25 25 24 25 26 26 27 27 26 26 27 26 24 23 23 23 22 23 23 25 26 26 25
30 30 30 30 31 30 31 31 29 29 27 28 28 27 26 26 31 29 28 27 26 26 26 26 25 27 28 27 27 27 26 26 26 24 24 23 23 23 24 23 23 25 25 25
29 30 31 31 33 31 31 29 26 24 24 25 27 27 27 27 29 30 29 29 28 27 26 25 27 27 28 28 27 26 26 25 24 24 23 23 23 23 23 24 23 23 24 24
29 31 31 32 33 32 30 27 26 28 26 26 25 27 27 30 29 29 31 30 29 28 26 25 25 24 25 26 27 26 25 25 24 23 22 23 23 22 23 23 23 24 22 22
28 31 33 33 33 33 32 28 26 31 27 27 26 27 29 30 28 28 29 30 28 28 27 26 25 24 25 26 26 25 24 23 23 23 23 23 22 22 22 23 23 23 22 22
27 30 31 32 33 33 31 30 28 24 23 26 26 27 28 30 30 29 30 30 28 28 27 27 26 25 25 25 25 25 24 24 24 24 23 23 22 22 22 22 22 22 22 21
29 29 31 31 33 31 33 28 29 24 30 30 26 26 27 30 30 29 29 27 27 27 27 26 26 25 25 25 24 24 24 24 24 23 23 23 22 22 22 21 21 21 22 21
27 27 31 31 32 31 29 29 23 23 23 26 26 27 25 28 27 27 26 26 25 25 25 25 25 25 25 24 24 23 23 22 22 21 21 21 21 21 20 20 20 20 20 19
27 24 28 30 29 28 29 31 25 25 28 21 22 25 28 24 23 25 26 24 24 24 24 24 23 24 24 24 23 23 22 22 22 21 20 19 20 20 19 19 19 19 19 18
27 25 26 27 27 29 30 30 23 21 21 24 25 26 27 25 26 25 25 23 23 23 23 22 22 21 22 23 23 23 23 23 23 22 20 19 19 19 19 18 18 18 18 19
25 22 27 26 28 28 30 30 28 25 24 25 24 26 27 27 26 24 23 23 22 23 22 21 20 20 21 22 23 23 23 23 23 22 20 19 18 18 18 18 17 18 18 17
27 29 26 27 27 28 29 29 28 27 26 28 28 24 26 26 26 24 23 24 23 23 22 21 20 20 20 21 22 22 22 22 22 21 20 17 18 19 18 17 17 17 17 16
24 28 26 30 29 26 27 28 27 26 27 25 25 25 25 24 23 25 24 24 24 23 23 22 21 20 20 21 22 22 21 21 20 19 18 17 18 19 18 17 17 17 18 16
27 24 24 26 27 27 27 27 28 29 28 28 28 28 27 26 24 24 24 23 24 24 23 22 22 21 23 24 24 22 21 20 19 19 17 17 18 18 18 18 17 17 16 16
23 22 21 24 26 27 29 27 28 28 28 27 26 26 25 25 25 24 23 24 23 23 24 23 22 23 25 26 25 23 21 20 19 17 17 17 17 17 18 18 17 17 17 16
22 20 23 24 23 25 29 28 28 28 27 29 26 26 25 24 25 25 23 22 23 23 23 24 26 26 26 26 25 22 20 19 18 17 16 17 16 17 17 17 17 17 17 16
20 19 23 20 26 27 27 27 27 27 26 27 27 26 24 24 24 25 24 23 22 22 24 25 26 25 24 26 23 21 19 18 17 18 17 16 16 16 17 17 17 17 17 17
24 22 24 21 23 23 25 26 26 27 25 25 26 24 22 24 23 23 23 24 23 23 24 26 25 24 25 24 23 20 19 18 20 19 18 17 17 17 16 16 16 16 16 16
25 24 22 20 23 25 26 26 27 24 23 24 23 24 23 21 22 24 23 23 22 21 23 24 22 23 26 24 21 19 18 21 20 19 18 17 17 16 16 16 16 16 16 16
24 23 23 22 22 22 23 25 23 22 21 22 24 24 24 24 25 25 23 21 21 21 22 24 23 23 25 23 21 19 21 20 19 18 18 17 17 16 16 16 16 16 16 15
24 20 22 23 24 24 23 22 22 23 23 22 23 24 24 24 24 23 22 21 20 21 21 23 22 21 21 24 22 22 20 20 19 18 17 17 16 16 16 16 16 15 16 16
21 22 20 19 20 20 23 22 22 22 22 22 22 24 24 23 22 22 21 20 19 20 23 23 21 20 21 23 22 22 21 19 18 17 17 16 17 16 16 16 16 16 17 18
18 20 19 19 20 19 19 20 21 21 21 21 22 22 22 22 21 21 19 19 19 20 21 21 21 19 21 21 21 22 21 19 18 16 16 16 16 16 16 16 16 16 17 17